Regional Weather Roundup
Issued by NWS Charleston, WV

Home | Current Version | Previous Version | Graphics & Text | Print | Product List | Glossary On
Versions: 1 2 3 4 5 6 7 8 9 10 11 12 13 14 15 16 17 18 19 20 21 22 23 24 25 26 27 28 29 30 31 32 33 34 35 36 37 38 39 40 41 42 43 44 45 46 47 48 49 50
000
ASUS41 KRLX 251110
RWRRLX
West Virginia Regional Weather Roundup
National Weather Service Charleston WV
700 AM EDT FRI JUL 25 2014

Note: "fair" indicates few or no clouds below 12,000 feet with no
significant weather and/or obstructions to visibility.

WVZ003-251200-
Northern Panhandle of West Virginia

CITY           SKY/WX    TMP DP  RH WIND       PRES   REMARKS
WHEELING       FOG       51  50  96 CALM      30.10R VSB 1/4
$$

WVZ009-251200-
Northwest West Virginia

CITY           SKY/WX    TMP DP  RH WIND       PRES   REMARKS
PARKERSBURG    CLEAR     53  52  96 CALM      30.11R
$$

WVZ006-251200-
Western West Virginia

CITY           SKY/WX    TMP DP  RH WIND       PRES   REMARKS
HUNTINGTON     PTCLDY    55  55 100 CALM      30.07R FOG
$$

WVZ015-251200-
West Central West Virginia

CITY           SKY/WX    TMP DP  RH WIND       PRES   REMARKS
CHARLESTON     MOCLDY    63  62  97 S7        30.08R
$$

WVZ031-251200-
North Central West Virginia

CITY           SKY/WX    TMP DP  RH WIND       PRES   REMARKS
CLARKSBURG     CLEAR     55  52  89 CALM      30.09R
MORGANTOWN       N/A     56  52  86 CALM      30.10R
$$

WVZ035-042-045-251200-
South Central West Virginia

CITY           SKY/WX    TMP DP  RH WIND       PRES   REMARKS
BECKLEY        CLOUDY    58  55  90 CALM      30.12R
BLUEFIELD      CLOUDY    60  56  86 CALM      30.13R
LEWISBURG      MOCLDY    60  57  90 CALM      30.12R
$$

WVZ047-251200-
Northern Mountains of West Virginia

CITY           SKY/WX    TMP DP  RH WIND       PRES   REMARKS
ELKINS         CLOUDY    58  56  93 CALM      30.13R FOG
$$

WVZ052-251200-
Eastern Panhandle of West Virginia

CITY           SKY/WX    TMP DP  RH WIND       PRES   REMARKS
MARTINSBURG    CLEAR     56  52  86 CALM      30.07R
PETERSBURG     FOG       54  51  89 CALM      30.11R VSB<1/4
$$



USA.gov is the U.S. government's official web portal to all federal, state and local government web resources and services.